Location: Plateau_FTFHS
(35.6000°N, 81.3500°W)
Time: 10:38:21
(UTC-04:00)

Daily predictions for brighter satellites

Satellite Brightness Start Highest point End
(mag) Time Altitude Azimuth Time Altitude Azimuth Time Altitude Azimuth
Cosmos 2074 Rocket 4.1 20:53:02 10° S 20:59:15 65° E 21:05:27 10° NNE
Cosmos 1452 Rocket 4.1 20:57:34 10° SSE 21:02:19 36° E 21:07:06 10° NE
H-2A R/B 2.7 20:59:08 10° SSE 21:02:48 69° ENE 21:06:31 10° N
Cosmos 1356 Rocket 3.6 21:01:29 10° S 21:05:41 84° W 21:10:00 10° N
Cosmos 1782 3.6 21:02:13 10° NNE 21:05:56 34° E 21:09:37 10° SE
Cosmos 1674 Rocket 4.2 21:03:50 10° N 21:08:01 39° E 21:12:09 10° SSE
Cosmos 1190 Rocket 4.3 21:03:32 10° N 21:08:36 51° ENE 21:13:38 10° SE
ATLAS 5 CENTAUR R/B 2.5 21:03:47 10° NNW 21:09:56 90° NE 21:16:27 10° SSE
USA 186 1.7 21:07:09 10° SSE 21:10:15 84° E 21:13:31 10° N
Atlas Centaur 2 1.9 21:08:59 10° WSW 21:12:21 33° S 21:15:19 12° ESE
SL-08 ROCKET BODY 4.4 21:07:26 10° S 21:13:27 74° E 21:19:22 10° N
OAO 3 Rocket 4.0 21:10:59 10° SW 21:15:26 34° SSE 21:19:53 10° E
Resurs 01 Rocket 4.0 21:12:35 10° SSW 21:16:05 23° W 21:19:38 10° NW
CENTAUR R/B 3.4 21:08:58 10° NW 21:16:56 73° WSW 21:25:13 10° SSE
Cosmos 1939 Rocket 3.8 21:16:52 11° SE 21:20:00 29° ENE 21:23:25 10° NNE
Cosmos 1184 Rocket 4.3 21:19:36 13° SE 21:21:26 19° E 21:23:53 10° NE
ISS -2.9 21:18:44 10° SW 21:21:58 66° NW 21:25:12 10° NE
Sich 1 Rocket 3.8 21:17:30 10° S 21:21:58 56° E 21:26:28 10° NNE
Meteor 2-6 Rocket 4.4 21:16:37 10° N 21:22:29 61° E 21:28:11 10° SSE
Cosmos 1408 3.6 21:20:42 10° SSE 21:23:45 26° E 21:26:51 10° NNE
Meteosat 1 Rocket2 4.4 21:19:24 10° WSW 21:24:22 44° S 21:30:54 13° ESE
Cosmos 1238 Rocket 4.1 21:23:35 10° NNE 21:26:19 21° E 21:28:09 16° ESE
SPOT 5 4.2 21:25:17 13° ESE 21:29:01 29° ENE 21:33:33 10° N
COSMOS 2406 3.5 21:26:10 10° NNW 21:31:52 68° WSW 21:37:30 10° S
TIMED 4.5 21:29:29 10° SSW 21:33:49 86° ESE 21:38:12 10° NNE
Cosmos 2278 Rocket 2.2 21:28:21 10° S 21:33:54 59° ESE 21:39:28 10° NNE
Cosmos 1825 2.7 21:30:52 10° SSE 21:34:21 39° E 21:37:55 10° NNE
Cosmos 1844 Rocket 3.3 21:28:47 10° SSW 21:34:22 63° WNW 21:39:59 10° NNE
Coronas F rocket 4.2 21:33:27 10° SW 21:35:28 20° W 21:37:32 10° NNW
Cosmos 2084 3.4 21:32:55 10° SW 21:36:46 71° WNW 21:40:36 10° NNE
Cosmos 1975 Rocket 4.2 21:35:22 10° NNE 21:39:00 26° ENE 21:40:51 19° ESE
Cosmos 1844 3.9 21:33:40 10° SSW 21:39:24 79° WNW 21:45:14 10° NNE
Cosmos 676 Rocket 4.1 21:34:21 10° N 21:39:29 58° ENE 21:43:23 17° SE
Cosmos 1174 3.6 21:37:11 10° NNW 21:40:12 44° ENE 21:41:30 26° ESE
Meteor 2-10 Rocket 4.5 21:34:39 10° NNW 21:40:16 55° W 21:45:42 10° S
BREEZE-M DEB (TANK) 2.1 21:39:38 10° WNW 21:41:42 72° SW 21:43:47 22° SE
Cosmos 2341 Rocket 4.1 21:37:11 10° SSE 21:43:17 55° E 21:49:23 10° NNE
Cosmos 1954 Rocket 4.4 21:38:25 10° N 21:43:28 48° ENE 21:46:47 20° SE
Cosmos 1908 Rocket 3.5 21:41:23 10° S 21:45:46 83° E 21:50:13 10° N
Intercosmos 25 4.2 21:47:58 24° ESE 21:48:21 24° E 21:51:03 10° NE
Cosmos 1378 Rocket 3.6 21:45:32 10° N 21:49:48 56° E 21:52:24 22° SSE
COS B Rocket 3.2 21:46:11 10° N 21:50:02 55° E 21:51:57 24° SSE
Abrixas 4.3 21:49:16 10° SSW 21:50:21 18° S 21:50:21 18° S
Cosmos 962 Rocket 4.4 21:48:35 10° S 21:54:38 67° E 22:00:49 10° NNE
Cosmos 2082 Rocket 3.7 21:52:08 10° N 21:56:33 23° ENE 21:58:57 17° E
SL-27 R/B 4.2 21:56:10 10° NW 21:59:22 30° W 22:02:29 10° SSW
Nimbus 7 Rocket 4.3 21:53:45 10° NNE 21:59:43 78° ESE 22:05:43 10° S
deb Chang Zheng 4 3.6 21:55:33 10° N 21:59:59 83° WNW 22:04:25 10° SSW
Timation 2 Rocket 4.4 21:55:40 10° N 22:01:19 42° ENE 22:04:13 25° ESE
USA 245 4.4 22:05:04 24° ENE 22:05:18 24° ENE 22:08:29 10° NNE
GPS 2-05 Rocket1 2.8 22:02:20 10° W 22:06:04 89° NNW 22:07:26 36° E
Cosmos 2154 Rocket 4.2 22:02:03 10° SSW 22:08:15 72° W 22:14:27 10° N
EO 1 Delta rocket 4.2 22:02:27 10° N 22:08:18 81° WNW 22:13:07 10° SSW
Cosmos 2297 3.7 22:04:36 10° S 22:10:10 60° ESE 22:15:48 10° NNE
Cosmos 1295 Rocket 4.5 22:07:12 15° S 22:12:29 67° E 22:18:42 10° NNE
Envisat 3.1 22:09:02 20° S 22:12:37 76° WSW 22:17:42 10° NNW
Cosmos 1862 4.2 22:10:25 10° SSW 22:14:21 49° W 22:18:19 10° N
H-2A R/B 2.2 22:12:34 25° S 22:15:00 70° WSW 22:19:15 10° NNW
Cosmos 2151 Rocket 4.3 22:16:23 34° E 22:16:36 34° E 22:20:43 10° NNE
SEDSat Delta rocket 3.5 22:13:00 10° SW 22:16:42 35° S 22:16:42 35° S
CZ-3C R/B 3.6 21:56:52 10° WSW 22:20:50 30° SSW 22:23:56 25° SSE
APEX 3.4 22:17:49 13° SSW 22:21:03 81° WNW 22:25:53 10° NNE
Cosmos 1606 4.0 22:18:45 10° NNW 22:22:26 38° W 22:24:55 18° SSW
COSMOS 2487 2.6 22:19:07 10° NNW 22:22:43 70° WSW 22:23:26 52° SSW
Cosmos 489 Rocket 4.4 22:16:35 10° NNW 22:22:48 81° ENE 22:25:48 33° SSE
OAO 1 Rocket 4.3 22:17:36 10° WSW 22:22:53 73° SSE 22:25:17 33° E
CZ-4 R/B 4.3 22:19:10 10° NNE 22:23:30 38° E 22:23:30 38° E
Cosmos 1420 Rocket 4.2 22:19:36 10° SSW 22:24:50 71° WNW 22:30:04 10° NNE
Cosmos 614 Rocket 4.2 22:20:42 10° N 22:25:38 49° ENE 22:26:48 41° ESE
ERS-1 Rocket 4.4 22:22:47 10° SSW 22:27:21 34° W 22:31:56 10° NNW
MetOp-B 4.0 22:25:26 35° SSE 22:27:48 84° ENE 22:33:10 10° NNW
CZ-4 SHROUD 3.5 22:32:36 66° NW 22:32:36 66° NW 22:35:21 10° NNW
PSLV R/B 3.7 22:33:20 55° NW 22:33:20 55° NW 22:35:49 10° NNW
Cosmos 2366 rocket 4.0 22:32:20 37° SSE 22:34:43 59° E 22:40:56 10° NNE
Cosmos 1140 Rocket 3.5 22:32:50 10° NNW 22:37:59 78° WSW 22:39:35 45° S
Okean 3 4.4 22:35:26 10° NNW 22:39:31 45° W 22:41:09 30° SW
H-2A R/B 2.9 22:42:13 34° E 22:42:45 35° ENE 22:47:31 10° N
USA 234 3.5 22:36:50 10° ENE 22:42:57 42° SE 22:43:02 42° SE
ARGOS 3.0 22:46:30 55° SE 22:47:41 78° ENE 22:53:02 10° N
Okean 2 Rocket 4.3 22:45:11 16° SW 22:48:16 38° W 22:52:25 10° N
Timation 1 Rocket 4.3 22:46:57 48° SSE 22:48:25 62° ESE 22:54:20 10° NNE
CZ-4B R/B 3.4 22:43:43 10° N 22:48:38 81° WNW 22:50:13 43° SSW
SL-08 RB Rocket 3.6 22:49:27 66° E 22:49:37 67° ENE 22:54:14 10° N
Elektron 3 4.4 22:49:35 10° NW 22:52:33 77° W 22:52:33 77° W
YAOGAN 6 3.7 22:56:01 39° W 22:56:01 39° W 22:59:08 10° NNW
Terra 2.7 22:56:47 36° ENE 22:56:47 36° ENE 23:00:43 10° N
Cosmos 1242 Rocket 3.8 22:54:33 10° NNW 22:57:58 36° W 22:58:02 36° W
SPOT 1/Viking Rocket 3.6 22:57:07 55° SSW 22:58:12 73° WSW 23:03:26 10° NNW
OAO 3 Rocket 3.2 22:53:47 10° WSW 22:58:14 67° SW 22:58:14 67° SW
ISS 0.2 22:57:59 10° NW 22:58:55 11° NNW 22:59:51 10° N
Meteor 1-20 Rocket 4.1 23:01:01 65° ESE 23:01:18 66° E 23:06:48 10° NNE
Cosmos 2218 Rocket 4.2 23:00:20 29° SSW 23:03:44 69° W 23:10:08 10° N
SPOT 5 4.5 23:04:32 22° SW 23:06:54 32° W 23:11:40 10° NW
CARTOSAT-1 4.4 23:15:43 44° NNE 23:15:43 44° NNE 23:18:52 10° N
Meteor 1-25 Rocket 4.3 23:15:15 56° SSW 23:16:29 76° W 23:22:19 10° N
Cosmos 1833 Rocket 2.5 23:11:41 10° NNW 23:17:20 85° ENE 23:17:28 83° ESE
Meteor 2-19 Rocket 4.4 23:16:39 60° SSW 23:17:50 83° W 23:23:59 10° N
Cosmos 1727 Rocket 3.9 23:15:18 10° N 23:21:29 79° W 23:22:23 65° SSW
Lacrosse 5 3.5 23:25:04 24° NE 23:25:04 24° NE 23:27:05 10° NE
Cosmos 1536 Rocket 4.4 23:25:27 10° NNW 23:29:10 47° WNW 23:29:10 47° WNW
USA 229 DEB 3.6 23:25:31 10° NNW 23:32:40 82° WSW 23:33:32 70° S
USA 229 3.6 23:25:37 10° NNW 23:32:47 82° WSW 23:33:38 71° S
BREEZE-M DEB (TANK) 3.8 23:33:05 10° NW 23:38:18 39° W 23:38:18 39° W
ASTEX 1 4.0 23:34:29 10° N 23:38:12 51° NNE 23:38:12 51° NNE
Cosmos 2082 Rocket 2.8 23:35:26 10° NW 23:40:49 46° WSW 23:40:49 46° WSW
Cosmos 1821 Rocket 4.1 23:52:03 65° NE 23:52:03 65° NE 23:57:29 10° N
